Location: Chihuahua
(28.6330°N, 106.0830°W)
Time: 18:44:31
(UTC-07:00)

Daily predictions for brighter satellites

Satellite Brightness Start Highest point End
(mag) Time Altitude Azimuth Time Altitude Azimuth Time Altitude Azimuth
CZ-3A R/B 4.3 19:14:55 10° WSW 19:20:03 61° SSE 20:06:23 10° E
CZ-3A R/B 4.3 19:14:56 10° WSW 19:20:04 61° SSE 20:06:23 10° E
CZ-3A R/B 4.3 19:14:55 10° WSW 19:20:04 61° SSE 20:06:23 10° E
CZ-3A R/B 4.3 19:14:56 10° WSW 19:20:04 61° SSE 20:06:24 10° E
Cosmos 2082 4.1 19:26:02 10° SSW 19:31:36 72° WNW 19:37:14 10° NNE
Cosmos 1378 3.6 19:28:50 10° SSW 19:32:34 66° W 19:36:19 10° N
Cosmos 1934 Rocket 4.0 19:28:48 10° N 19:34:51 61° E 19:40:49 10° SSE
Cosmos 2297 Rocket 2.6 19:30:34 10° SSW 19:36:10 70° WNW 19:41:50 10° NNE
Cosmos 1842 Rocket 4.2 19:35:44 10° NNE 19:39:45 35° E 19:43:42 10° SSE
ASTEX 1 4.1 19:36:03 10° S 19:40:50 58° W 19:45:40 10° NNW
Cosmos 1741 Rocket 4.3 19:37:37 10° S 19:42:40 46° ESE 19:47:43 10° NNE
SEDSat Delta rocket 3.2 19:39:10 10° W 19:43:54 64° SSW 19:47:53 11° ESE
ATLAS 2AS CENTAUR R/B 4.2 19:37:58 10° NW 19:44:52 37° WSW 19:51:13 10° S
Spot 2 Rocket 3.5 19:43:17 10° SSE 19:48:19 81° ENE 19:53:23 10° N
NOSS 3-4 (A) 4.4 19:41:41 10° NNW 19:48:34 47° ENE 19:55:19 12° SE
NOSS 3-4 (C) 4.4 19:41:48 10° NNW 19:48:40 46° ENE 19:55:24 12° SE
ATLAS 5 CENTAUR R/B 1.9 19:44:30 10° SSW 19:49:01 75° WNW 19:53:49 10° NNE
Cosmos 1605 Rocket 4.2 19:43:06 10° N 19:49:15 55° E 19:55:27 10° SSE
Cosmos-2242 3.6 19:45:12 10° NNW 19:49:24 59° W 19:53:37 10° S
ATLAS 2A CENTAUR R/B 4.3 19:53:35 10° W 20:01:01 82° S 20:34:25 10° ESE
CZ-3B Rocket 3.8 19:57:06 10° WSW 20:01:36 36° S 20:14:13 13° ESE
Aureole 2 Rocket 2.9 19:57:45 10° NNW 20:01:40 67° WSW 20:05:17 10° S
Cosmos 1727 Rocket 4.0 19:56:09 10° S 20:02:25 81° E 20:08:47 10° N
Cosmos 1980 3.8 19:56:48 10° NNW 20:02:30 85° WSW 20:08:10 10° SSE
Cosmos 1939 Rocket 3.3 20:00:39 14° SE 20:03:45 44° ENE 20:07:36 10° N
CZ-4B DEB 4.0 20:03:01 18° ESE 20:04:04 22° ENE 20:06:27 10° NNE
Cosmos 2098 Rocket 4.4 19:56:27 10° N 20:04:06 85° E 20:11:09 10° S
Cosmos 1340 Rocket 2.7 20:01:00 10° S 20:04:59 86° E 20:09:02 10° N
OAO 3 Rocket 4.4 20:03:52 10° W 20:07:52 28° SSW 20:11:01 14° SSE
SJ-11-01 4.5 20:05:39 14° SSE 20:09:36 55° ENE 20:14:14 10° N
Skynet4D Del rocket 3.9 20:04:11 10° W 20:09:47 63° S 20:14:33 18° ESE
Palapa 6 Rocket 3.8 20:04:58 10° WSW 20:10:20 43° S 20:13:12 20° ESE
Cosmos 2237 Rocket 2.3 20:06:40 10° NNW 20:12:16 75° WSW 20:17:41 11° SSE
Envisat 2.9 20:07:53 10° SSE 20:12:57 83° ENE 20:18:02 10° N
Cosmos 2221 3.3 20:09:20 10° NNE 20:13:20 34° E 20:15:27 22° SE
Cosmos 1674 3.1 20:12:57 19° SSE 20:15:19 41° E 20:18:52 10° NNE
Meteor 1-29 2.8 20:12:24 10° NNE 20:15:50 75° ESE 20:19:16 10° S
SAR-Lupe-4 4.1 20:17:59 26° SE 20:19:31 41° ENE 20:22:54 10° N
Okean 3 Rocket 3.5 20:17:07 10° S 20:21:37 78° E 20:26:05 10° N
GPS 2-05 Rocket1 2.5 20:18:41 10° WSW 20:21:45 80° NNW 20:24:07 16° ENE
Abrixas 3.2 20:19:55 10° SSW 20:21:39 30° S 20:21:39 30° S
SPOT 5 4.5 20:26:16 17° E 20:27:31 18° ENE 20:30:50 10° NNE
Cosmos 1908 3.8 20:27:12 10° NNE 20:30:48 36° E 20:31:32 33° ESE
Lacrosse 5 4.1 20:29:33 10° NNE 20:31:43 13° NE 20:33:52 10° ENE
KORONAS-FOTON 4.1 20:31:42 36° SE 20:32:44 45° E 20:36:22 10° NNE
Cosmos 1766 Rocket 3.8 20:31:58 31° SE 20:33:31 45° E 20:37:39 10° NNE
SL-16 R/B 2.2 20:31:44 10° NNW 20:37:23 69° ENE 20:40:16 29° SSE
SAR-Lupe-1 4.0 20:37:56 44° SE 20:38:54 68° ENE 20:42:28 10° N
Cosmos 1570 Rocket 4.2 20:34:22 10° N 20:39:34 57° ENE 20:41:43 33° SE
Cosmos 1242 Rocket 2.9 20:37:34 10° N 20:41:08 44° E 20:41:26 43° E
Atlas Centaur 2 0.8 20:38:44 10° W 20:42:25 82° SSW 20:43:05 56° ESE
Helios 1B rocket 4.3 20:44:09 10° NNW 20:47:47 30° WNW 20:51:25 10° SW
Resurs 01 Rocket 4.3 20:48:15 10° SW 20:50:32 14° W 20:52:51 10° WNW
Helios 1A 3.9 20:48:19 20° SSW 20:50:51 43° W 20:54:48 10° NNW
Delta 2 Rocket 4.3 20:45:59 10° WSW 20:51:38 73° NNW 20:57:27 10° ENE
SL-08 RB Rocket 4.5 21:00:01 34° ENE 21:00:08 34° ENE 21:04:16 10° N
NOAA 11 4.1 20:58:36 41° SSE 21:00:30 75° ENE 21:05:55 10° N
Terra 4.0 21:02:54 13° ENE 21:02:54 13° ENE 21:04:32 10° NE
ERS-1 Rocket 2.9 21:01:46 43° SSE 21:03:27 89° WSW 21:08:31 10° NNW
USA 234 3.5 21:00:22 10° NE 21:06:53 71° NW 21:13:22 10° SW
Cosmos 1459 Rocket 4.0 21:07:50 10° N 21:14:04 76° W 21:16:50 35° S
YAOGAN 6 4.4 21:13:14 23° SW 21:14:14 26° W 21:17:21 10° NW
Cosmos 332 Rocket 4.5 21:11:18 10° N 21:15:45 39° ENE 21:15:45 39° ENE
Cosmos 220 Rocket 4.1 21:15:54 58° SW 21:16:42 77° WNW 21:21:07 10° NNE
MetOp-B 4.0 21:16:35 54° S 21:17:52 87° WSW 21:23:14 10° NNW
Nimbus 7 Rocket 4.3 21:13:38 10° NNE 21:19:39 78° ESE 21:21:28 47° S
H-2A R/B 2.4 21:19:43 47° E 21:19:57 47° ENE 21:25:06 10° N
Cosmos 2100 Rocket 4.4 21:13:55 10° NNW 21:20:09 61° W 21:23:22 30° SSW
Sakura Rocket 4.0 21:12:20 10° W 21:20:39 89° NNE 21:22:48 45° E
Cosmos 2123 Rocket 3.9 21:20:43 42° S 21:23:00 89° W 21:29:13 10° N
Meteor 2-10 4.3 21:21:49 10° N 21:27:23 56° E 21:27:34 56° E
Cosmos 2061 Rocket 4.3 21:21:15 10° NNW 21:27:35 65° W 21:30:12 36° SSW
Cosmos 1726 3.2 21:24:16 10° N 21:26:41 40° N 21:26:41 40° N
SL-14 R/B 3.8 21:28:56 56° NNW 21:28:56 56° NNW 21:32:13 10° N
Cosmos 2263 Rocket 2.0 21:28:33 72° ESE 21:28:42 72° ESE 21:34:16 10° NNE
Cosmos 2173 Rocket 4.5 21:23:48 10° NNW 21:29:49 55° W 21:32:33 32° SSW
Cosmos 1300 4.0 21:28:16 10° N 21:30:38 36° N 21:30:38 36° N
RESURS DK-1 3.3 21:29:47 10° NNW 21:32:49 43° NNE 21:32:49 43° NNE
Cosmos 1818 4.2 21:29:56 10° NW 21:35:05 45° WSW 21:35:50 42° SW
EO 1 Delta rocket 4.0 21:46:03 70° NW 21:46:03 70° NW 21:50:12 10° NNW
Cosmos 2151 4.2 21:47:34 39° N 21:47:34 39° N 21:50:17 10° N
Milstar 3 Cent rocket 4.0 21:41:19 10° W 21:49:29 58° SSW 21:53:47 44° SSE
Orbus 7S 4.4 21:35:27 10° W 21:49:33 77° S 21:49:44 76° SSE
Meteor 2-2 Rocket 4.3 21:44:12 10° NNW 21:50:00 72° W 21:50:29 68° SW
Cosmos 1725 Rocket 3.9 21:47:11 10° N 21:53:24 75° W 21:54:01 69° SW
Cosmos 1354 Rocket 4.5 21:56:26 53° NNE 21:56:26 53° NNE 22:00:25 10° NNE
Cosmos 1603 4.1 21:59:09 10° NNW 22:04:18 57° W 22:04:18 57° W
SPOT 5 4.1 22:05:31 34° W 22:05:31 34° W 22:09:43 10° NNW
Cosmos 371 Rocket 4.1 22:00:56 10° NNW 22:04:29 48° NW 22:04:29 48° NW
Cosmos 1814 Rocket 4.4 22:00:41 10° NNW 22:05:09 59° NW 22:05:09 59° NW
ARGOS 4.3 22:05:45 34° WSW 22:06:07 35° W 22:11:02 10° NNW
CZ-4C R/B 4.0 22:13:21 20° NE 22:13:21 20° NE 22:15:06 10° NE
Lacrosse 5 2.8 22:10:11 10° NW 22:13:41 45° NW 22:13:41 45° NW
Cosmos 841 Rocket 4.2 22:10:12 10° NNW 22:13:59 49° N 22:13:59 49° N
Cosmos 1763 Rocket 4.3 22:11:51 10° NNW 22:15:31 47° NW 22:15:31 47° NW
Cosmos 1943 3.7 22:14:06 10° NNW 22:18:35 58° NNW 22:18:35 58° NNW
H-2A R/B 4.1 22:28:08 26° N 22:28:08 26° N 22:30:00 10° NNW
Terra 3.6 22:41:47 29° NW 22:41:47 29° NW 22:44:20 10° NNW
H-2A R/B 4.4 23:00:21 15° W 23:00:21 15° W 23:02:34 10° WNW
Cosmos 1844 Rocket 4.5 23:47:58 26° NNW 23:47:58 26° NNW 23:51:05 10° N
